Wrangell, AK

1:32 PM AKDT on August 28, 2016 (GMT -0800)
Wrangell

Weather History for PAWG - March, 2012

Change the Weather History Date:

Thursday, March 1, 2012

  Actual Average Record
Temperature  
Mean Temperature 34 °F -  
Max Temperature 37 °F 38 °F 49 °F (1968)
Min Temperature 30 °F 28 °F 10 °F (2011)
Degree Days  
Heating Degree Days 32    
Moisture  
Dew Point 28 °F    
Average Humidity 79    
Maximum Humidity 93    
Minimum Humidity 69    
Precipitation  
Precipitation 0.00 in - - ()
Sea Level Pressure  
Sea Level Pressure 29.90 in    
Wind  
Wind Speed 9 mph (ESE)    
Max Wind Speed 18 mph    
Max Gust Speed 26 mph    
Visibility 8 miles    
Events      
Averages and records for this station are not official NWS values.
T = Trace of Precipitation, MM = Missing Value Source: NWS Daily Summary

Daily Weather History Graph

Daily Weather History Graph

Search for Another Location

Airport or City:

Trip Planner

Search our weather history database for the weather conditions in past years. The results will help you decide how hot, cold, wet, or windy it might be!

Date:

Astronomy

Mar. 01, 2012 Rise Set
Actual Time 6:39 AM AKST 5:24 PM AKST
Civil Twilight 6:02 AM AKST 6:02 PM AKST
Nautical Twilight 5:18 AM AKST 6:45 PM AKST
Astronomical Twilight 4:34 AM AKST 7:30 PM AKST
Moon 9:53 AM AKST (3/1) 2:40 AM AKST (3/1)
Length of Visible Light 12h 00m
Length of Day
10h 44m
First Quarter, 58% of the Moon is Illuminated
Mar 1
First Quarter
Mar 8
Full
Mar 14
Last Quarter
Mar 22
New
Mar 30
First Quarter

Hourly Weather History & Observations

Time (AKST) Temp. Windchill Dew Point Humidity Pressure Visibility Wind Dir Wind Speed Gust Speed Precip Events Conditions
12:16 AM 30.2 °F 22.6 °F 24.8 °F 80% 29.83 in 10.0 mi ESE 8.1 mph - N/A   Overcast
12:36 AM 32.0 °F 24.8 °F 24.8 °F 75% 29.84 in 10.0 mi ESE 8.1 mph - N/A   Overcast
12:56 AM 32.0 °F 24.8 °F 26.6 °F 80% 29.85 in 10.0 mi ESE 8.1 mph - N/A   Overcast
1:16 AM 32.0 °F 24.8 °F 24.8 °F 75% 29.85 in 10.0 mi East 8.1 mph - N/A   Overcast
1:36 AM 32.0 °F 24.2 °F 24.8 °F 75% 29.86 in 10.0 mi East 9.2 mph - N/A   Overcast
1:56 AM 32.0 °F 24.2 °F 24.8 °F 75% 29.86 in 10.0 mi ENE 9.2 mph - N/A   Overcast
2:16 AM 32.0 °F 25.6 °F 24.8 °F 75% 29.86 in 10.0 mi ENE 6.9 mph - N/A   Overcast
2:36 AM 32.0 °F 25.6 °F 24.8 °F 75% 29.87 in 10.0 mi ENE 6.9 mph - N/A   Overcast
2:56 AM 32.0 °F 28.7 °F 23.0 °F 69% 29.87 in 10.0 mi NE 3.5 mph - N/A   Overcast
3:16 AM 32.0 °F - 24.8 °F 75% 29.87 in 10.0 mi Calm Calm - N/A   Overcast
3:36 AM 32.0 °F - 23.0 °F 69% 29.88 in 10.0 mi Calm Calm - N/A   Overcast
3:56 AM 30.2 °F 25.4 °F 24.8 °F 80% 29.89 in 2.5 mi WNW 4.6 mph - N/A   Overcast
4:16 AM 30.2 °F 26.7 °F 24.8 °F 80% 29.89 in 10.0 mi West 3.5 mph - N/A   Overcast
4:36 AM 30.2 °F 23.4 °F 26.6 °F 86% 29.90 in 3.0 mi East 6.9 mph - N/A   Overcast
4:56 AM 30.2 °F 22.6 °F 26.6 °F 86% 29.90 in 2.0 mi ENE 8.1 mph - N/A   Overcast
5:16 AM 30.2 °F 21.3 °F 28.4 °F 93% 29.90 in 5.0 mi ESE 10.4 mph - N/A   Overcast
5:36 AM 30.2 °F 21.9 °F 26.6 °F 86% 29.90 in 10.0 mi East 9.2 mph - N/A   Overcast
5:56 AM 30.2 °F 21.9 °F 28.4 °F 93% 29.91 in 2.0 mi East 9.2 mph - N/A   Overcast
6:16 AM 30.2 °F 21.3 °F 28.4 °F 93% 29.91 in 2.0 mi East 10.4 mph - N/A   Overcast
6:36 AM 30.2 °F 22.6 °F 26.6 °F 86% 29.92 in 2.0 mi ESE 8.1 mph - N/A   Overcast
6:56 AM 30.2 °F 24.3 °F 26.6 °F 86% 29.93 in 3.0 mi East 5.8 mph - N/A   Overcast
7:16 AM 30.2 °F 25.4 °F 28.4 °F 93% 29.93 in 3.0 mi ENE 4.6 mph - N/A   Overcast
7:36 AM 30.2 °F 24.3 °F 28.4 °F 93% 29.93 in 3.0 mi East 5.8 mph - N/A   Overcast
7:56 AM 30.2 °F 23.4 °F 28.4 °F 93% 29.93 in 7.0 mi ENE 6.9 mph - N/A   Overcast
8:16 AM 32.0 °F 23.6 °F 28.4 °F 87% 29.93 in 7.0 mi East 10.4 mph - N/A   Overcast
8:36 AM 32.0 °F 23.0 °F 28.4 °F 87% 29.93 in 7.0 mi ESE 11.5 mph - N/A   Overcast
8:56 AM 32.0 °F 22.5 °F 28.4 °F 87% 29.93 in 10.0 mi ESE 12.7 mph - N/A   Overcast
9:16 AM 32.0 °F 22.1 °F 28.4 °F 87% 29.93 in 10.0 mi East 13.8 mph - N/A   Overcast
9:36 AM 33.8 °F 24.8 °F 28.4 °F 81% 29.93 in 10.0 mi East 12.7 mph - N/A   Overcast
9:56 AM 33.8 °F 25.8 °F 28.4 °F 81% 29.94 in 10.0 mi East 10.4 mph - N/A   Overcast
10:16 AM 33.8 °F 27.0 °F 28.4 °F 81% 29.94 in 10.0 mi ESE 8.1 mph - N/A   Overcast
10:36 AM 35.6 °F 28.6 °F 26.6 °F 70% 29.94 in 10.0 mi East 9.2 mph - N/A   Overcast
10:56 AM 35.6 °F 32.8 °F 28.4 °F 75% 29.94 in 10.0 mi West 3.5 mph - N/A   Overcast
11:16 AM 35.6 °F - 28.4 °F 75% 29.94 in 10.0 mi Calm Calm - N/A   Overcast
11:36 AM 35.6 °F 30.7 °F 30.2 °F 81% 29.93 in 10.0 mi ESE 5.8 mph 16.1 mph N/A   Overcast
11:56 AM 35.6 °F 30.7 °F 28.4 °F 75% 29.93 in 10.0 mi South 5.8 mph - N/A   Overcast
12:16 PM 37.4 °F 29.3 °F 28.4 °F 70% 29.91 in 10.0 mi SE 12.7 mph 18.4 mph N/A   Overcast
12:36 PM 37.4 °F 30.3 °F 28.4 °F 70% 29.91 in 10.0 mi SE 10.4 mph - N/A   Overcast
12:56 PM 37.4 °F 29.3 °F 28.4 °F 70% 29.91 in 10.0 mi ESE 12.7 mph - N/A   Overcast
1:16 PM 37.4 °F 30.3 °F 28.4 °F 70% 29.91 in 10.0 mi SE 10.4 mph - N/A   Overcast
1:36 PM 37.4 °F 29.8 °F 28.4 °F 70% 29.92 in 10.0 mi SE 11.5 mph - N/A   Overcast
1:56 PM 37.4 °F 30.3 °F 30.2 °F 75% 29.92 in 10.0 mi ESE 10.4 mph 17.3 mph N/A   Overcast
2:16 PM 35.6 °F 26.6 °F 30.2 °F 81% 29.92 in 10.0 mi ESE 13.8 mph - N/A   Overcast
2:36 PM 37.4 °F 29.8 °F 28.4 °F 70% 29.92 in 10.0 mi ESE 11.5 mph - N/A   Overcast
2:56 PM 37.4 °F 29.3 °F 28.4 °F 70% 29.92 in 10.0 mi ESE 12.7 mph - N/A   Overcast
3:16 PM 37.4 °F 28.9 °F 28.4 °F 70% 29.91 in 10.0 mi ESE 13.8 mph 19.6 mph N/A   Overcast
3:36 PM 35.6 °F 25.2 °F 30.2 °F 81% 29.89 in 10.0 mi ESE 18.4 mph 23.0 mph N/A   Overcast
3:56 PM 35.6 °F 25.5 °F 30.2 °F 81% 29.89 in 10.0 mi ESE 17.3 mph 23.0 mph N/A   Overcast
4:16 PM 35.6 °F 25.9 °F 30.2 °F 81% 29.88 in 10.0 mi ESE 16.1 mph 19.6 mph N/A   Overcast
4:36 PM 35.6 °F 25.5 °F 28.4 °F 75% 29.88 in 10.0 mi SE 17.3 mph 26.5 mph N/A   Overcast
4:56 PM 35.6 °F 25.9 °F 30.2 °F 81% 29.88 in 10.0 mi ESE 16.1 mph 21.9 mph N/A   Overcast
5:16 PM 35.6 °F 25.5 °F 30.2 °F 81% 29.87 in 10.0 mi ESE 17.3 mph - N/A   Overcast
5:36 PM 35.6 °F 25.5 °F 30.2 °F 81% 29.86 in 10.0 mi ESE 17.3 mph 21.9 mph N/A   Overcast
5:56 PM 35.6 °F 25.2 °F 30.2 °F 81% 29.84 in 10.0 mi SE 18.4 mph 24.2 mph N/A   Overcast
6:16 PM 35.6 °F 25.2 °F 28.4 °F 75% 29.84 in 10.0 mi ESE 18.4 mph - N/A   Overcast
6:36 PM 35.6 °F 24.8 °F 30.2 °F 81% 29.83 in 10.0 mi ESE 19.6 mph 23.0 mph N/A   Overcast
6:56 PM 35.6 °F 24.8 °F 30.2 °F 81% 29.82 in 10.0 mi ESE 19.6 mph 26.5 mph N/A   Overcast
7:16 PM 35.6 °F 24.8 °F 28.4 °F 75% 29.81 in 10.0 mi ESE 19.6 mph 27.6 mph N/A   Overcast
7:36 PM 35.6 °F 25.2 °F 28.4 °F 75% 29.81 in 10.0 mi East 18.4 mph 25.3 mph N/A   Overcast
7:56 PM 35.6 °F 24.5 °F 28.4 °F 75% 29.79 in 10.0 mi ESE 20.7 mph 28.8 mph N/A   Overcast
8:16 PM 35.6 °F 25.9 °F 28.4 °F 75% 29.79 in 10.0 mi ESE 16.1 mph - N/A   Overcast
8:36 PM 35.6 °F 25.2 °F 30.2 °F 81% 29.78 in 10.0 mi ESE 18.4 mph 26.5 mph N/A   Overcast
8:56 PM 35.6 °F 24.0 °F 30.2 °F 81% 29.76 in 10.0 mi ESE 23.0 mph 32.2 mph N/A   Overcast
9:16 PM 35.6 °F 24.2 °F 30.2 °F 81% 29.75 in 10.0 mi ESE 21.9 mph 29.9 mph N/A   Overcast
9:36 PM 35.6 °F 23.7 °F 30.2 °F 81% 29.74 in 10.0 mi ESE 24.2 mph 31.1 mph N/A   Overcast
9:56 PM 35.6 °F 24.8 °F 30.2 °F 81% 29.74 in 10.0 mi ESE 19.6 mph 33.4 mph N/A   Overcast
10:16 PM 35.6 °F 25.9 °F 30.2 °F 81% 29.76 in 10.0 mi SE 16.1 mph 25.3 mph N/A   Overcast
10:36 PM 35.6 °F 26.2 °F 30.2 °F 81% 29.76 in 10.0 mi SE 15.0 mph 19.6 mph N/A   Overcast
10:56 PM 35.6 °F 30.7 °F 30.2 °F 81% 29.78 in 10.0 mi South 5.8 mph - N/A   Overcast
11:16 PM 35.6 °F 30.7 °F 30.2 °F 81% 29.79 in 5.0 mi NW 5.8 mph - N/A   Overcast
11:36 PM 35.6 °F 32.8 °F 32.0 °F 87% 29.80 in 5.0 mi WNW 3.5 mph - N/A   Overcast
11:56 PM 35.6 °F 30.7 °F 32.0 °F 87% 29.81 in 6.0 mi WSW 5.8 mph - N/A   Mostly Cloudy